Location: Czernica
(51.0462°N, 17.2458°E)
Time: 05:44:53
(UTC+01:00)

ISS - Pass Details

Date: 02 February 2019
Orbit: 403 x 411 km, 51.6° (Epoch: 21 February)

Event Time Altitude Azimuth Distance (km) Brightness Sun altitude
Rises 18:03:29 0° 276° (W) 2,336 1.6 -12.8°
Reaches altitude 10° 18:05:34 10° 278° (W) 1,476 0.3 -13.1°
Maximum altitude 18:08:53 81° 5° (N) 420 -3.9 -13.6°
Enters shadow 18:10:32 27° 91° (E) 819 -2.9 -13.8°
